Regional Weather Roundup
Issued by NWS Wilmington, NC

Home | Current Version | Previous Version | Text Only | Print | Product List | Glossary On
Versions: 1 2 3 4 5 6 7 8 9 10 11 12 13 14 15 16 17 18 19 20 21 22 23 24 25 26 27 28 29 30 31 32 33 34 35 36 37 38 39 40 41 42 43 44 45 46 47 48 49 50
000
ASUS42 KILM 250813
RWRILM
RWRILM
REGIONAL HOURLY WEATHER ROUNDUP
NATIONAL WEATHER SERVICE WILMINGTON NC
400 AM EDT MON JUL 25 2016

NOTE: "FAIR" INDICATES FEW OR NO CLOUDS BELOW 12,000 FEET WITH NO
SIGNIFICANT WEATHER AND/OR OBSTRUCTIONS TO VISIBILITY.

...............WFO WILMINGTON COUNTY WARNING AREA...............

......COASTAL NC AND SC COUNTIES......

CITY           SKY/WX    TMP DP  RH WIND       PRES   REMARKS
WILMINGTON     PTCLDY    79  76  90 S3        30.04F
N MYRTLE BEACH MOCLDY    82  77  84 SW8       30.04F HX  90
MYRTLE BEACH   PTCLDY    81  70  69 SW3       30.06F

......INLAND NC AND SC COUNTIES.......

CITY           SKY/WX    TMP DP  RH WIND       PRES   REMARKS
LUMBERTON      PTCLDY    77  75  93 S3        30.02F
ELIZABETHTOWN  PTCLDY    78  78  99 S5        30.04S
WHITEVILLE     PTCLDY    78  76  94 S3        30.04S
FLORENCE       CLEAR     78  75  90 S7        30.03F
DARLINGTON     PTCLDY    78  75  90 SW5       30.02F
KINGSTREE      FAIR      73  72  94 CALM      30.03F
HARTSVILLE     FAIR      75  73  94 S3        30.02F
BENNETTSVILLE  FAIR      79  77  94 SE3       30.01F
CONWAY         FAIR      73  73 100 CALM      30.04F
GEORGETOWN     FAIR      75  73  94 CALM      30.05F
MARION           N/A     77  73  88 S5        30.03F

....................REST OF NORTH CAROLINA......................

.........EASTERN NC.........

CITY           SKY/WX    TMP DP  RH WIND       PRES   REMARKS
CAPE HATTERAS  CLEAR     82  77  84 W8        30.04S HX  90
JACKSONVILLE   CLEAR     76  75  97 S5        30.05S
MOREHEAD CITY  PTCLDY    82  76  81 SW12      30.05S
KENANSVILLE    NOT AVBL
NEW BERN       CLEAR     78  75  90 S6        30.05S
ELIZABETH CITY CLOUDY    78  76  93 SW8       30.02R

.........CENTRAL NC.........

CITY           SKY/WX    TMP DP  RH WIND       PRES   REMARKS
RALEIGH DURHAM CLEAR     78  75  90 SW6       30.02S
ROCKY MOUNT    CLEAR     77  76  96 SW5       30.02R
ROANOKE RAPIDS NOT AVBL
FAYETTEVILLE   CLEAR     79  76  90 S7        30.02F
HOFFMAN        PTCLDY    77  74  91 S6        30.02F

.........WESTERN NC.........

CITY           SKY/WX    TMP DP  RH WIND       PRES   REMARKS
CHARLOTTE      CLEAR     78  70  76 S6        30.03S
GREENSBORO     PTCLDY    78  73  84 SW6       30.03R
HICKORY        NOT AVBL
BOONE          NOT AVBL
ASHEVILLE      NOT AVBL

.....................REST OF SOUTH CAROLINA.....................

.........EASTERN SC.........

CITY           SKY/WX    TMP DP  RH WIND       PRES   REMARKS
CHARLESTON     PTCLDY    78  74  87 S5        30.03F
BEAUFORT MCAS  CLEAR     79  75  87 SW3       30.03F
HILTON HEAD    PTCLDY    82  75  78 S8        30.04S

.........CENTRAL SC.........

CITY           SKY/WX    TMP DP  RH WIND       PRES   REMARKS
COLUMBIA       CLEAR     81  72  74 S5        30.01F
ORANGEBURG     CLOUDY    78  74  87 S3        30.04S
SUMTER SHAW    PTCLDY    78  74  87 S6        30.00F

.........WESTERN SC.........

CITY           SKY/WX    TMP DP  RH WIND       PRES   REMARKS
GREENVILLE     NOT AVBL
ROCK HILL      CLEAR     76  72  87 SW5       30.04S
ANDERSON       CLEAR     78  71  79 CALM      30.03S
CLEMSON        NOT AVBL
GREENWOOD      CLEAR     78  70  76 S10       30.04F


...................COASTAL AND OFFSHORE REPORTS..................

................LOCAL PIERS AND NC RESERVE................


STATION/POSITION TIME  SKY/WX   TEMP    WIND        PRES    VSBY
                                AIR SEA DIR/SP/G
                 (UTC)          (F)     (DEG/KT/KT) (MB)    (MI)
JOHNY MRCER PIER 0700            81 81  230/  6/  8 1016.7S
NC RESRV MASNBRO NOT AVBL
OCEAN CREST PIER NOT AVBL
SPRINGMAID  PIER 0700            81 84              1017.2F


................COASTAL AND OFFSHORE BUOYS................


STATION/POSITION TIME  SKY/WX   TEMP    WIND        PRES    VSBY
                                AIR SEA DIR/SP/G
                 (UTC)          (F)     (DEG/KT/KT) (MB)    (MI)
DIMNDSHOAL 41025 0750            84 85  240/ 14/ 16 1017.3S
WVE H/P(F/S)=  3/ 4 SWL H/P/D(F/S/D)=  2/120/ 8

CAPE LOOKOUT     0800            83     220/  7/  9 1017.2S
ONSLOW BAY 41036 NOT AVBL
ONSLOW BAY 41064 0708            84 85  220/ 12/ 17 1017.5F
ONSLOW BAY 41159 0725               85                N/A
WVE H/P(F/S)=  3/ 4

5SE WRITBC 41038 0708            83 84  230/ 10/ 16 1018.4S
MASNBO INL 41110 0706               84                N/A
WVE H/P(F/S)=  2/ 9

WILM HARBR 41108 0726               85                N/A
WVE H/P(F/S)=  3/ 4

27SE WRITB 41037 0708            84 85  220/ 12/ 16 1017.8F
FRYING PAN 41013 0800            85 85  210/ 12/ 14 1017.1F
SUNST NRSH 41024 0708            83 84  230/ 12/ 17 1017.3F
CAPRS NRSH 41029 0708            83 83  220/ 12/ 17 1017.3F
EDISTO     41004 0750            85 86  200/ 12/ 14 1016.9F
WVE H/P(F/S)=  2/ 8 SWL H/P/D(F/S/D)=  2/130/ 8



..........OFFSHORE BUOYS BEYOND 100 NM OFFSHORE...........
.....IN A TRIANGLE---HAT TO BERMUDA TO BAHAMAS TO HAT.....


STATION/POSITION TIME  SKY/WX   TEMP    WIND        PRES    VSBY
                                AIR SEA DIR/SP/G
                 (UTC)          (F)     (DEG/KT/KT) (MB)    (MI)
150E HAT   41001 NOT AVBL
W BERMUDA  41048 0750            83 84  240/  6/  8 1019.2F
WVE H/P(F/S)=  2/ 8 SWL H/P/D(F/S/D)=  2/120/ 8

ATLANTIC S 41049 0750            82 85  130/  4/  6 1021.1R
WVE H/P(F/S)=  3/ 7 SWL H/P/D(F/S/D)=  3/100/ 7

E BAHAMAS  41046 0800            83 85   90/ 12/ 14 1018.1F
NE BAHAMAS 41047 0800            83 85  130/ 10/ 14 1019.0S
120E CANVRL41010 0720            81 87  150/  4/  6 1018.1F

END



USA.gov is the U.S. government's official web portal to all federal, state and local government web resources and services.